Location: Anglesey
(53.1800°N, 4.2200°W)
Time: 01:40:48
(UTC+00:00)

N. Korean satellite - Pass Details

Date: 09 October 2017
Orbit: 461 x 513 km, 97.2° (Epoch: 14 December)

Event Time Altitude Azimuth Distance (km) Brightness Sun altitude
Rises 20:08:36 0° 202° (SSW) 2,561 10.4 -14.9°
Reaches altitude 10° 20:11:07 10° 220° (SW) 1,675 9.7 -15.3°
Maximum altitude 20:13:48 20° 268° (W) 1,192 9.5 -15.7°
Drops below altitude 10° 20:16:27 10° 316° (NW) 1,663 10.1 -16.1°
Sets 20:18:57 0° 335° (NNW) 2,538 10.8 -16.4°
